OpenBCM V1.08-5-g2f4a (Linux)

Packet Radio Mailbox

IZ3LSV

[San Dona' di P. JN]

 Login: GUEST





  
I0OJJ  > KEPS     25.07.25 02:50l 343 Lines 16342 Bytes #155 (0) @ AMSAT
BID : ORB25206.1
Read: GUEST
Subj: 2Line Orbital Elements 25206.AMSAT
Path: IZ3LSV<IK6IHL<IK7NXU<HB9ON<HB9ON<PI8ZTM<VK2IO<VK3AT<VE3QBZ<VE3CGR<
      VE3TOK<IR0AAB<I0OJJ
Sent: 250725/0025z @:I0OJJ.ITA.EU [Rome] obcm1.08-10-g596e
From: I0OJJ @ I0OJJ.ITA.EU (Gustavo)
To:   KEPS @ AMSAT
X-Info: This message was generated automatically


QST de W1STR

AMSAT Orbital Elements for Amateur Satellites in TLE Format
From Orbital Analysis Office
New England Sci-Tech STEM Education Center
Natick, MA July 25, 2025
To all radio amateurs


These element sets describe the orbits of various satellites 
in use by the amateur radio community. For details see:
www.amsat.org/keplerian-elements-formats/

A daily update of element sets is available at:
www.amsat.org/tle/daily-bulletin.txt
or without bulletin text:
www.amsat.org/tle/dailytle.txt


AO-07
1 07530U 74089B   25205.58454772 -.00000025  00000-0  13564-3 0  9999
2 07530 101.9944 210.3289 0012494  37.8846  78.9558 12.53690393319462
UO-11
1 14781U 84021B   25205.47780401  .00001226  00000-0  13442-3 0  9999
2 14781  97.7573 170.9684 0007772 176.5160 183.6113 14.89489880208322
AO-27
1 22825U 93061C   25205.67256442  .00000100  00000-0  55261-4 0  9992
2 22825  98.7343 267.4474 0008043 348.6754  11.4246 14.30811328660439
FO-29
1 24278U 96046B   25205.55671438 -.00000023  00000-0  14832-4 0  9999
2 24278  98.5697  93.5222 0349193 225.9587 131.2300 13.53250806428859
NOAA-15
1 25338U 98030A   25205.75677900  .00000195  00000-0  97729-4 0  9999
2 25338  98.5339 229.7974 0009415 221.9162 138.1299 14.27001162414840
GO-32
1 25397U 98043D   25205.51033948  .00000071  00000-0  50637-4 0  9990
2 25397  98.9732 185.5739 0002378  83.7405 276.4044 14.24324145404680
ISS
1 25544U 98067A   25205.86430271  .00015035  00000-0  27019-3 0  9991
2 25544  51.6365 120.3226 0002384 116.0513 352.4252 15.50076300521006
NO-44
1 26931U 01043C   25205.77260749  .00000123  00000-0  77284-4 0  9993
2 26931  67.0519  10.9906 0006377 276.8164  83.2212 14.31752311243738
SO-50
1 27607U 02058C   25205.77403325  .00000974  00000-0  13804-3 0  9991
2 27607  64.5527  61.0186 0061179 324.2570  35.4446 14.81731968216139
CO-55
1 27844U 03031E   25205.57847766  .00000313  00000-0  15529-3 0  9998
2 27844  98.6764 213.2720 0010740  60.7662 299.4589 14.24024644145044
CO-57
1 27848U 03031J   25205.54797008  .00000260  00000-0  13380-3 0  9996
2 27848  98.6792 213.2135 0010755  76.3564 283.8811 14.23355421144817
RS-22
1 27939U 03042A   25205.80381509  .00001063  00000-0  17597-3 0  9999
2 27939  98.3316  16.3583 0010543 222.0303 251.8230 14.72438752167483
CO-58
1 28895U 05043F   25205.34226883  .00001629  00000-0  27269-3 0  9991
2 28895  98.2552 350.2679 0014968 160.6964 199.4812 14.71133404 53524
CO-65
1 32785U 08021C   25205.56204627  .00004526  00000-0  32488-3 0  9997
2 32785  97.7868 177.0766 0011396  65.9426 294.2991 15.04780551935849
CO-66
1 32791U 08021J   25205.49416742  .00013356  00000-0  63016-3 0  9991
2 32791  97.7293 186.5703 0004425  42.0302 318.1271 15.19584970937390
RS-30
1 32953U 08025A   25204.58493125  .00000027  00000-0  12603-3 0  9991
2 32953  82.5015 199.8118 0018278 312.6894  47.2646 12.43166558779004
NOAA-19
1 33591U 09005A   25205.79349786  .00000166  00000-0  11267-3 0  9995
2 33591  98.9953 270.7472 0012953 233.2527 126.7456 14.13393331848494
SRMSAT
1 37841U 11058D   25205.50625979  .00000391  00000-0  68458-4 0  9993
2 37841  19.9709 242.6820 0011633 198.2944 311.5232 14.11446571711689
ZACUBE-1
1 39417U 13066B   25205.84301286  .00004479  00000-0  38760-3 0  9997
2 39417  97.7832 162.6334 0041725 260.5277  99.1227 14.97008875631688
Delfi-N3xt
1 39428U 13066N   25205.73128549  .00005533  00000-0  55976-3 0  9996
2 39428  97.8327 122.8888 0083026 210.8131 148.8199 14.88828415625974
GOMX-1
1 39430U 13066Q   25205.75411249  .00002108  00000-0  33078-3 0  9997
2 39430  97.6793  61.6385 0133422  48.2986 312.9544 14.67792426622032
LO-74
1 39440U 13066AA  25205.73716027  .00005091  00000-0  51184-3 0  9990
2 39440  97.8506 149.9949 0062680  32.4806 328.0244 14.90208706629363
AO-73
1 39444U 13066AE  25205.83034037  .00006386  00000-0  47304-3 0  9996
2 39444  97.7860 167.9378 0040269 231.5598 128.2010 15.02837617630977
DTUSAT-2
1 40030U 14033W   25205.66232840  .00007076  00000-0  45472-3 0  9998
2 40030  98.0576 179.6837 0007230 266.5261  93.5139 15.08747699603707
EO-80
1 40032U 14033Y   25205.68024386  .00007260  00000-0  46548-3 0  9996
2 40032  98.0452 179.2945 0007982 197.3371 162.7585 15.08816419603694
LILACSAT-2
1 40908U 15049K   25205.78769335  .00012756  00000-0  32342-3 0  9990
2 40908  97.5042 227.2492 0008797  11.0284 349.1153 15.39801327545183
IO-86
1 40931U 15052B   25151.18580175  .00001241  00000-0  78118-4 0  9996
2 40931   6.0006  24.0987 0012733 338.8432  21.1169 14.78805930523047
Horyu-4
1 41340U 16012D   25205.65433917  .00023516  00000-0  59472-3 0  9991
2 41340  30.9952 188.4393 0006978 178.3576 181.7094 15.38518304519738
Lapan A3
1 41603U 16040E   25205.69370060  .00003957  00000-0  13798-3 0  9995
2 41603  97.1374 208.5395 0012852 106.2581 254.0075 15.30115239504686
CAS-2T
1 41847U 16066G   25205.66737072  .00001126  00000-0  16774-3 0  9993
2 41847  98.4185 279.7320 0346404  42.2633 320.4705 14.43609105457529
CAS-4B
1 42759U 17034B   25205.81202698  .00091409  00000-0  74814-3 0  9992
2 42759  43.0056  51.1645 0022623 250.7262 109.1157 15.69178662449695
CAS-4A
1 42761U 17034D   25205.80271912  .00099063  00000-0  75258-3 0  9996
2 42761  43.0093  47.8014 0023727 255.1558 104.6681 15.70890635449723
TechnoSat
1 42829U 17042E   25205.41814729  .00004598  00000-0  35473-3 0  9990
2 42829  97.3891  11.9758 0017338 126.4249 233.8578 15.01931807437459
AO-91
1 43017U 17073E   25205.60361590  .00009692  00000-0  48884-3 0  9998
2 43017  97.5184  75.2383 0171047  13.7043 346.8742 15.05398761415983
S-Net D
1 43186U 18014G   25205.63324708  .00004902  00000-0  28754-3 0  9997
2 43186  97.5580 108.0810 0010752  74.0032 286.2382 15.12171688409180
S-Net B
1 43187U 18014H   25205.70541359  .00004639  00000-0  27243-3 0  9998
2 43187  97.5587 108.1264 0011443  69.6181 290.6277 15.12152860409199
S-Net A
1 43188U 18014J   25205.63348270  .00004876  00000-0  28595-3 0  9992
2 43188  97.5593 108.2111 0011292  70.3913 289.8536 15.12176784409181
S-Net C
1 43189U 18014K   25205.70793509  .00004681  00000-0  27477-3 0  9992
2 43189  97.5611 108.3068 0012743  63.3268 296.9266 15.12149283407745
Ten-Koh
1 43677U 18084G   25205.73727390  .00002427  00000-0  19646-3 0  9994
2 43677  98.0839  19.7794 0009060 111.4747 248.7443 15.00741575367017
PO-101
1 43678U 18084H   25205.79759752  .00001680  00000-0  14574-3 0  9993
2 43678  98.1068  23.6572 0009061 127.0639 233.1412 14.98503324367158
QO-100
1 43700U 18090A   25205.20100957  .00000133  00000-0  00000-0 0  9997
2 43700   0.0209  69.2393 0002691  95.5548 235.5648  1.00273209 24387
MinXSS-2
1 43758U 18099A   25205.17338256  .00018663  00000-0  70761-3 0  9991
2 43758  97.5001 271.3821 0011042   6.8319 353.3068 15.26869340363778
AO-95
1 43770U 18099N   25205.61789106  .00009548  00000-0  47326-3 0  9991
2 43770  97.4892 263.2175 0011738  61.8689 298.3729 15.17897134363385
RANGE-A
1 43773U 18099R   25205.68441223  .00005443  00000-0  34360-3 0  9990
2 43773  97.4453 252.7803 0012096  43.7030 316.5155 15.09425629363023
MOVE-II
1 43780U 18099Y   25194.80194206  .15913345  26116-5  37118-3 0  9995
2 43780  97.4526 273.8800 0018736 270.1080  89.8075 16.44566529363241
SNUSat 2
1 43782U 18099AA  25205.65506988  .00006916  00000-0  37173-3 0  9998
2 43782  97.4571 259.6353 0011668   6.1783 353.9591 15.15146913363327
SnugLite
1 43784U 18099AC  25205.70404282  .00009754  00000-0  47946-3 0  9992
2 43784  97.4384 259.3383 0003420  26.3357 333.8051 15.18233798363485
ITASat 1
1 43786U 18099AE  25205.57953356  .00006826  00000-0  38493-3 0  9994
2 43786  97.4539 258.9365 0015296  55.6792 304.5885 15.13393493363266
EAGLET 1
1 43790U 18099AJ  25205.70196196  .00004959  00000-0  31392-3 0  9991
2 43790  97.4734 258.8604 0012783  41.0105 319.2083 15.09363011362875
ESEO
1 43792U 18099AL  25205.68269521  .00002342  00000-0  17934-3 0  9993
2 43792  97.4433 251.4941 0012528  11.8855 348.2663 15.02740394362591
CSIM
1 43793U 18099AM  25205.69004322  .00629377  16245-3  18279-2 0  9997
2 43793  97.4719 287.5082 0004704 275.6602  84.4135 15.92908453364778
JO-97
1 43803U 18099AX  25205.44473961  .00013600  00000-0  60372-3 0  9998
2 43803  97.4638 264.1378 0006805   0.7182 359.4062 15.21661912363594
Suomi 100
1 43804U 18099AY  25205.40147398  .00010346  00000-0  49544-3 0  9999
2 43804  97.4703 263.2602 0011679 359.8166   0.3062 15.19077971363509
ISAT
1 43879U 18111D   25205.27744451  .00022309  00000-0  73775-3 0  9999
2 43879  97.5926 120.6956 0009839  52.3129 307.9003 15.31319332360531
UWE-4
1 43880U 18111E   25205.51085080  .00016685  00000-0  63078-3 0  9999
2 43880  97.5871 119.0887 0013315  59.3129 300.9419 15.26966268360486
Sparrow
1 43881U 18111F   25205.74446213  .00022297  00000-0  70735-3 0  9998
2 43881  97.6079 124.2319 0008888  84.5535 275.6720 15.32663374358700
Prox-1
1 44339U 19036A   25205.44459727  .00012861  00000-0  16004-2 0  9999
2 44339  23.9960 126.9246 0007438 222.4873 137.5049 14.80678608324673
SONATE
1 44400U 19038Q   25185.47540524  .09032085  27445-5  31847-3 0  9995
2 44400  97.6609 216.4776 0012462 246.7970 113.2018 16.43248376333575
Taurus 1
1 44530U 19059C   25205.77167001  .00006666  00000-0  12176-2 0  9996
2 44530  98.6112 347.3327 0008310 250.0094 110.0214 14.66261713310567
Duchifat 3
1 44854U 19089C   25205.76654780  .00050014  00000-0  86230-3 0  9991
2 44854  36.9421  67.1588 0006892 317.7844  42.2382 15.50004109309958
TO-108
1 44881U 19093C   25205.68610831  .00000894  00000-0  10910-3 0  9999
2 44881  97.7911 280.3911 0015247  84.5368 275.7586 14.85675179302770
